Location: Cahas Mountain Overlook
(37.0833°N, 80.1000°W)
Time: 00:44:36
(UTC-05:00)

Explorer 11/Cluster Stage 4 - All Passes

Search period start: 29 November 2023 00:00
Search period end: 09 December 2023 00:00
Orbit: 465 x 1228 km, 28.8° (Epoch: 28 November)

Date Brightness Start Highest point End Pass type
(mag) Time Alt. Az. Time Alt. Az. Time Alt. Az.
29 Nov - 15:38:58 10° SSW 15:42:40 18° SSE 15:45:55 10° ESE daylight
29 Nov - 17:26:14 10° SW 17:30:18 26° S 17:33:47 10° ESE visible
29 Nov - 19:14:29 10° WSW 19:17:44 22° S 19:20:40 10° SE visible
30 Nov - 15:22:29 10° SSW 15:26:46 21° SSE 15:30:28 10° ESE daylight
30 Nov - 17:10:04 10° WSW 17:14:28 29° S 17:18:11 10° ESE daylight
30 Nov - 18:58:31 10° WSW 19:01:55 22° SSW 19:04:57 10° SE visible
01 Dec - 13:21:06 10° S 13:22:58 11° SSE 13:24:46 10° SE daylight
01 Dec - 15:06:01 10° SW 15:10:50 24° SSE 15:14:57 10° ESE daylight
01 Dec - 16:53:52 10° WSW 16:58:36 31° S 17:02:33 10° ESE daylight
01 Dec - 18:42:30 10° WSW 18:46:05 22° SSW 18:49:13 10° SE visible
02 Dec - 13:03:46 10° S 13:06:57 13° SSE 13:09:55 10° SE daylight
02 Dec - 14:49:34 10° SW 14:54:53 26° SSE 14:59:22 10° ESE daylight
02 Dec - 16:37:38 10° WSW 16:42:42 33° S 16:46:54 10° ESE daylight
02 Dec - 18:26:28 10° WSW 18:30:13 22° SSW 18:33:28 10° SE visible
03 Dec - 12:46:48 10° SSW 12:50:54 16° SSE 12:54:40 10° ESE daylight
03 Dec - 14:33:09 10° SW 14:38:53 29° S 14:43:44 10° ESE daylight
03 Dec - 16:21:24 10° WSW 16:26:46 34° S 16:31:12 10° ESE daylight
03 Dec - 18:10:23 10° WSW 18:14:19 22° SSW 18:17:43 10° SE visible
04 Dec - 12:30:01 10° SSW 12:34:48 18° SSE 12:39:11 10° ESE daylight
04 Dec - 14:16:43 10° SW 14:22:51 32° S 14:28:01 10° ESE daylight
04 Dec - 16:05:07 10° WSW 16:10:49 36° S 16:15:29 10° ESE daylight
04 Dec - 17:54:15 10° WSW 17:58:23 22° SSW 18:01:56 10° SSE visible
05 Dec - 12:13:19 10° SSW 12:18:40 20° SSE 12:23:35 10° ESE daylight
05 Dec - 14:00:18 10° SW 14:06:47 34° S 14:12:17 10° ESE daylight
05 Dec - 15:48:50 10° WSW 15:54:49 37° S 15:59:45 10° ESE daylight
05 Dec - 17:38:06 10° WSW 17:42:25 22° SSW 17:46:07 10° SSE visible
06 Dec - 11:56:41 10° SSW 12:02:30 23° SSE 12:07:52 10° ESE daylight
06 Dec - 13:43:53 10° SW 13:50:41 37° S 13:56:29 10° ESE daylight
06 Dec - 15:32:31 10° WSW 15:38:48 38° S 15:43:58 10° ESE daylight
06 Dec - 17:21:55 10° WSW 17:26:26 22° SSW 17:30:17 10° SSE visible
07 Dec - 11:40:08 10° SSW 11:46:19 25° SSE 11:52:04 10° ESE daylight
07 Dec - 13:27:30 10° WSW 13:34:33 39° S 13:40:39 10° ESE daylight
07 Dec - 15:16:12 10° WSW 15:22:43 39° S 15:28:08 10° ESE daylight
07 Dec - 17:05:42 10° WSW 17:10:23 22° SSW 17:14:25 10° SSE daylight
08 Dec - 09:40:27 10° SSE 09:42:08 11° SSE 09:43:50 10° SE daylight
08 Dec - 11:23:38 10° SSW 11:30:05 27° SSE 11:36:12 10° ESE daylight
08 Dec - 13:11:08 10° WSW 13:18:23 41° S 13:24:45 10° ESE daylight
08 Dec - 14:59:52 10° WSW 15:06:38 40° S 15:12:17 10° ESE daylight
08 Dec - 16:49:29 10° WSW 16:54:19 22° SSW 16:58:30 10° SSE daylight
